Flag for Austria Weather past 2 weeks in Horn, Lower Austria, Austria

Now
71 °F

Mild.


Feels Like: 74 °F
Forecast: 53 / 64 °F
Wind: 5 mph from Southeast

Location: Retz

Current Time: May 5, 2015 at 2:21:17 PM

Latest Report: May 5, 2015 at 1:00 PM


Visibility: N/A

Pressure: 29.77 "Hg

Humidity: 70%

Dew point: 61 °F

Location of HornLocation

Historic Weather in Horn — Graph

°F

Horn temperature yesterday

Maximum temperature yesterday: 71 °F (at 3:00 PM)
Minimum temperature yesterday: 51 °F (at 12:00 AM)
Average temperature yesterday: 60 °F

Past Weeks' High & Low Weather Summary

 TemperatureHumidityPressure
High76 °F (Apr 27, 6:00 PM)100% (May 2, 1:00 AM)30.28 "Hg (May 2, 1:00 AM)
Low39 °F (Apr 29, 6:00 AM)23% (Apr 21, 6:00 PM)29.47 "Hg (Apr 27, 6:00 PM)
Average55 °F67%29.93 "Hg
* Reported Apr 20 1:00 PM — May 5 1:00 PM, Horn, Weather by CustomWeather, © 2015

Note: Actual official high and low records may vary slightly from our data, if they occured in-between our weather recording intervals... More about our weather records

Advertising

Horn weather history for previous 24 hours

 ConditionsComfort  
Time TempWeatherWind HumidityBarometerVisibility
1:00 PM
Tue, May 5
71 °FMild.5 mph70%29.77 "HgN/A
12:00 PM69 °FMild.3 mph74%29.78 "HgN/A
11:00 AM67 °FMild.3 mph80%29.79 "HgN/A
10:00 AM64 °FMild.3 mph87%29.79 "HgN/A
9:00 AM60 °FCool.3 mph98%29.82 "HgN/A
8:00 AM59 °FFog.3 mph100%29.82 "Hg2 mi
7:00 AM58 °FFog.3 mph100%29.82 "Hg2 mi
6:00 AM58 °FCool.5 mph100%29.81 "HgN/A
4:00 AM58 °FCool.3 mph99%29.83 "HgN/A
3:00 AM59 °FCool.3 mph99%29.84 "HgN/A
2:00 AM60 °FCool.3 mph95%29.85 "HgN/A
1:00 AM62 °FCool.2 mph92%29.86 "HgN/A
12:00 AM63 °FMild.1 mph89%29.87 "HgN/A
11:00 PM
Mon, May 4
63 °FMild.2 mph88%29.88 "HgN/A
10:00 PM64 °FMild.3 mph91%29.88 "HgN/A
9:00 PM64 °FMild.3 mph89%29.87 "HgN/A
8:00 PM66 °FOvercast.3 mph83%29.87 "Hg9 mi
7:00 PM68 °FMild.5 mph78%29.86 "HgN/A
6:00 PM70 °FMild.3 mph73%29.85 "HgN/A
5:00 PM71 °FMild.5 mph56%29.85 "HgN/A
4:00 PM71 °FMild.7 mph53%29.85 "HgN/A
3:00 PM71 °FMild.6 mph62%29.85 "HgN/A
2:00 PM69 °FPartly sunny.7 mph68%29.85 "Hg11 mi
Weather by CustomWeather, © 2015

See weather overviewHow to use our weather pages